Showing default

WNISAT 1, 39423

Orbit data source: Space-Track

WNISAT 1, 39423 is a payload satellite owned by WNI (JP) in SSO that was launched on Thu, 21 Nov 2013 UTC via a DNEPR launch vehicle from the Orenburg, Russia (OREN). Payload-class satellites include a variety of spacecraft equipped with specific instruments for various scientific and technological missions. These include communications satellites like Starlink; space stations such as the ISS; scientific satellites like the Hubble; Earth observation satellites from companies like Planet Labs, Umbra, and HawkEye 360; GPS; miniature CubeSats for education and research; and military/defense satellites.

Loading next visibility...
Identifier
39423, 2013-066H
Orbit
SSO
Country
Flag of JPJP / JPN
Related business
Manufacturer
AXELSPACE
Mission
Operational Commercial Sci/Cal
Bus & Motor
YAIYO, Unknown motor
Mass
10.1 kg wet, 10.1 kg dry
Launch date (UTC)
2013-11-21 (12 years ago)
Launch vehicle
DNEPR
Launch site
Orenburg, Russia (OREN)
Object type
Payload
Rocket body
Debris
Shape & HBR
Box, 0.1 m
Radar Cross Section
0.109 m², Medium (>0.1 m² and < 1m²)

Expand to show TLE details & history
Last TLE update: 11 hours ago

TLE from 11 hours ago
0 WNISAT 1
1 39423U 13066H   25300.39313072  .00002087  00000-0  39216-3 0  9996
2 39423  97.6915 101.5985 0163444 244.9929 113.4222 14.57431947632810
Epoch: 2025-10-27T09:26Z
TLE epoch observation values (Epoch: 2025-10-27T09:26:06.494Z)
Latitude
Longitude
-75.92418°
Altitude
752.058 km
Speed
7.453 km/s
True Right ascension
06h 46m 23s
True Declination
0° 00' 00"
Sunlit
Object was in daylight at epoch
Visualization orbit readout
Latitude
Unknown
Longitude
Unknown
Altitude
Unknown
Speed
Unknown
Apparent Right ascension
Unknown
Apparent Declination
Unknown
Sunlit
N/A
Visualization observer readout
Local Sidereal Time
15:51:34
Azimuth
Unknown
Elevation
Unknown
Doppler factor
Unknown
Orbital elements
Apogee altitude
814.203 km
Perigee altitude
582.875 km
Semi-major axis
7,076.676 km
Eccentricity
0.01634
Inclination
97.6915°
RAAN
101.5985°
Arg. of periapsis
244.9929°
True anomaly
115.1267°
Mean anomaly
113.4222°
Eccentric anomaly
114.27586°
Mean motion
3.64585 °/min
Orbital period
98.74 mins
BSTAR
0.00039216
Loading maneuver chart data...
Computing Atmospheric mass density...
Loading historical data...
Loading historical data...
Loading historical data...
Loading historical data...
Loading historical data...
Loading historical data...
Loading historical data...

Documentation

Showing up to 5 results
|